Kalamazoo Battle Creek International Airport Kalamazoo US
ICAO: KAZO
IATA: AZO
Category: Medium
Scheduled Services: Yes

Elevation: 874 ft
TransAlt. 18000 ft.

Airport Communications:
APP/DEP:119.2
ATIS:127.25
CLNC DEL:121.75
CTAF:118.3
GND:121.9
LANSING RDO:109
TWR:118.3
UNICOM:122.95

KAZO Zoom In..

If you have problems with the map follow the link
https://www.worldairports.se/pages/airport.php?
ICAO=KAZO

Runways:

(A) RW 05 length 3439 ft width 100 ft
---- / hdg 48

(B) RW 09 length 2800 ft width 60 ft
---- / hdg 93

(C) RW 17 length 6502 ft width 150 ft
---- / hdg 174

(D) RW 23 length 3439 ft width 100 ft
---- / hdg 228

(E) RW 27 length 2800 ft width 60 ft
---- / hdg 273

(F) RW 35 length 6502 ft width 150 ft
ILS 110.90 / hdg 354

Location; KAZO
Day. 14 / Time. 21.53 Zulu
* Altimeter: 30.18
* Temperature: 05° c. 41°f.
* Wind from: 010° Speed 06 kn.
Dewpoint: 04° c.
Visibility: 1 Statute Miles.
Clouds: Overcast 200 ft.
Conditions: Mist.

KAZO 142153Z 01006KT 1SM R35/4500VP6000FT BR OVC002 05/04 A3018 RMK AO2 SLP227 T00500044


Wind From 010°
Speed 06 kn.

 
 
jpsmedia.com for Web Design worldairports.se 2018   terms of use